NAXING 1

导读

NAXING 1(纳星一号)是中国于2004年4月18日成功发射的首颗自主研制纳型卫星,由清华大学与航天清华卫星技术有限公司联合研发,质量小于25公斤,运行于太阳同步轨道。它以高新技术试验验证为核心任务,开展CMOS相机成像、微型惯性测量、变轨控制等多项前沿演示验证,填补了我国纳型卫星领域空白。卫星技术成果可推广至对地观测、环境监测、资源勘察等多场景,标志着中国微小卫星技术实现关键突破,推动我国航天领域向微型化、低成本方向变革。

Basic Information
目录编号:
28221
目录名称:
NAXING 1
国际标识:
2004-012B
轨道中心:
EARTH
卫星名称:
NAXING 1
卫星全名:
--
卫星状态:
在轨 (已飞行8175 天)
发射日期:
2004-04-18 UTC
国别 :
中国 (CN)
星等 :
--
Orbit Information
数据来源 国际轨道数据
星历时间: 2026-09-05T10:04:30+0800
15小时前
查看轨道信息
半长轴: 6926.091km
偏心率: 0.0010819
轨道倾角: 98.001°
近地点辐角 174.811°
升交点赤经 278.879°
平近点角 185.323°
近地点: 540.46km
远地点: 555.448km
周期: 95.608分钟
每日圈数: 15.061578
Detailed Information
使用方式:
暂无
2D Orbit Map
3D Orbit Map
Orbit Altitude Analysis Chart
Orbit Inclination Analysis Chart
Orbit Comprehensive Analysis Chart
View Comprehensive Chart
Conjunction Data List
Event ID Objects TCA Miss Dist (km) Collision Risk Probability Collision Risk Index (CRI) Action
CDM_260905-164902-822106-559425
NAXING 1 (28221)
2026-09-05T
16:49:09+0000
1.569 km
极远距离
2.531914E-6 低风险 0.43